GLO1246 SBRB-SBEG

Flight info

Callsign GLO1246
Flight time N/A
Altitude 37000
Route PUNPA DCT MASON UZ62 ILKOD
Aircraft B738/M-SDFGIKLORWXY/LB1

Departure

Time 2026-04-25 01:02
Airport Rio Branco-Plácido de Castro International Airport (SBRB)

Arrival

Time N/A
Airport Eduardo Gomes International Airport (SBEG)
Time Latitude Longitude Altitude Speed Heading
2026-04-25 00:49 -9.86708 -67.89678 625 ft 0 kts 327°
2026-04-25 00:52 -9.86712 -67.89675 636 ft 4 kts 324°
2026-04-25 00:52 -9.86731 -67.89657 628 ft 4 kts 300°
2026-04-25 00:53 -9.86740 -67.89632 633 ft 4 kts 271°
2026-04-25 00:53 -9.86736 -67.89606 633 ft 3 kts 240°
2026-04-25 00:53 -9.86734 -67.89602 630 ft 0 kts 237°
2026-04-25 00:54 -9.86733 -67.89602 630 ft 0 kts 237°
2026-04-25 00:54 -9.86734 -67.89602 630 ft 0 kts 237°
2026-04-25 00:55 -9.86738 -67.89609 634 ft 3 kts 237°
2026-04-25 00:55 -9.86754 -67.89637 634 ft 6 kts 248°
2026-04-25 00:56 -9.86767 -67.89673 625 ft 6 kts 241°
2026-04-25 00:56 -9.86792 -67.89713 625 ft 8 kts 237°
2026-04-25 00:56 -9.86829 -67.89768 630 ft 10 kts 223°
2026-04-25 00:56 -9.86893 -67.89790 625 ft 10 kts 191°
2026-04-25 00:57 -9.86957 -67.89804 632 ft 9 kts 193°
2026-04-25 00:57 -9.87018 -67.89819 629 ft 9 kts 192°
2026-04-25 00:57 -9.87079 -67.89831 628 ft 9 kts 191°
2026-04-25 00:57 -9.87139 -67.89841 628 ft 9 kts 175°
2026-04-25 00:58 -9.87159 -67.89796 629 ft 8 kts 67°
2026-04-25 00:58 -9.87126 -67.89742 631 ft 11 kts 57°
2026-04-25 00:58 -9.87074 -67.89662 634 ft 16 kts 57°
2026-04-25 00:58 -9.87005 -67.89555 636 ft 20 kts 57°
2026-04-25 00:59 -9.86930 -67.89439 639 ft 19 kts 57°
2026-04-25 00:59 -9.86854 -67.89316 631 ft 22 kts 57°
2026-04-25 00:59 -9.86771 -67.89188 630 ft 21 kts 57°
2026-04-25 00:59 -9.86693 -67.89066 620 ft 20 kts 57°
2026-04-25 01:00 -9.86610 -67.88935 614 ft 23 kts 57°
2026-04-25 01:00 -9.86517 -67.88790 606 ft 25 kts 57°
2026-04-25 01:00 -9.86441 -67.88671 604 ft 10 kts 53°
2026-04-25 01:00 -9.86384 -67.88635 605 ft 10 kts 20°
2026-04-25 01:01 -9.86377 -67.88598 605 ft 6 kts 138°
2026-04-25 01:01 -9.86413 -67.88622 609 ft 10 kts 238°
2026-04-25 01:01 -9.86588 -67.88895 615 ft 86 kts 237°
2026-04-25 01:01 -9.87049 -67.89618 638 ft 156 kts 236°
2026-04-25 01:02 -9.87713 -67.90658 1050 ft 184 kts 238°
2026-04-25 01:02 -9.88419 -67.91764 1950 ft 192 kts 237°
2026-04-25 01:02 -9.89182 -67.92965 2427 ft 216 kts 237°
2026-04-25 01:02 -9.90043 -67.94324 2630 ft 240 kts 237°
2026-04-25 01:03 -9.90977 -67.95798 3043 ft 254 kts 237°
2026-04-25 01:03 -9.91593 -67.97516 3320 ft 274 kts 270°
2026-04-25 01:03 -9.91091 -67.99364 4006 ft 275 kts 306°
2026-04-25 01:03 -9.89719 -68.00582 4792 ft 271 kts 338°
2026-04-25 01:04 -9.87898 -68.01018 5572 ft 269 kts
2026-04-25 01:04 -9.86076 -68.00650 6334 ft 269 kts 27°
2026-04-25 01:04 -9.84599 -67.99499 7048 ft 270 kts 50°
2026-04-25 01:04 -9.83474 -67.97967 7756 ft 273 kts 56°
2026-04-25 01:05 -9.82424 -67.96373 8482 ft 275 kts 57°
2026-04-25 01:05 -9.81364 -67.94732 9192 ft 280 kts 57°
2026-04-25 01:05 -9.80288 -67.93070 9924 ft 283 kts 57°
2026-04-25 01:05 -9.79186 -67.91379 10397 ft 296 kts 57°
2026-04-25 01:06 -9.78002 -67.89575 10580 ft 317 kts 56°
2026-04-25 01:06 -9.76758 -67.87687 11092 ft 324 kts 56°
2026-04-25 01:06 -9.76493 -67.87288 11223 ft 325 kts 56°
2026-04-25 01:06 -9.86711 -67.89676 633 ft 0 kts 327°
2026-04-25 01:07 -9.86708 -67.89678 633 ft 0 kts 327°